Location: Bron Breck
(40.6655°N, 111.8083°W)
Time: 20:19:38
(UTC+00:00)

ISS - Pass Details

Date: 09 March 2021
Orbit: 418 x 422 km, 51.6° (Epoch: 12 April)

Event Time Altitude Azimuth Distance (km) Brightness Sun altitude
Exits shadow 11:42:59 21° 16° (NNE) 989 -1.6 -24.3°
Maximum altitude 11:43:09 21° 21° (NNE) 986 -1.5 -24.3°
Drops below altitude 10° 11:45:56 10° 75° (ENE) 1,531 0.2 -23.8°
Sets 11:48:15 0° 90° (E) 2,358 1.3 -23.4°
